Regional Weather Roundup
Issued by NWS

Home | Current Version | Previous Version | Text Only | Print | Product List | Glossary Off
Versions: 1 2 3 4 5 6 7 8 9 10 11 12 13 14 15 16 17 18 19 20 21 22 23 24 25 26 27 28 29 30 31 32 33 34 35 36 37 38 39 40 41 42 43 44 45 46 47 48 49 50

000
ASUS43 KLOT 170308
RWRIL

ILLINOIS REGIONAL WEATHER ROUNDUP
NATIONAL WEATHER SERVICE CHICAGO/ROMEOVILLE IL
900 PM CST TUE JAN 16 2018

NOTE: "FAIR" INDICATES FEW OR NO CLOUDS BELOW 12,000 FEET WITH NO
SIGNIFICANT WEATHER AND/OR OBSTRUCTIONS TO VISIBILITY.

* THESE STATIONS ARE NOT UNDER NWS QUALITY CONTROL. THEY ALSO MAY NOT
  REPORT WEATHER SUCH AS PRECIPITATION OR FOG.

ILZ001-002-007-009-015-016-024-170400-
NORTHWEST ILLINOIS

CITY           SKY/WX    TMP DP  RH WIND       PRES   REMARKS
MOLINE         FAIR       8   2  76 NW12      30.62F WCI  -7
STERLING*      FAIR       5   2  87 W7        30.59  WCI  -7
SAVANNA*       FAIR       9   4  82 W7        30.61S WCI  -3
$$

ILZ003-004-008-010-011-017-018-170400-
NORTH CENTRAL ILLINOIS

CITY           SKY/WX    TMP DP  RH WIND       PRES   REMARKS
ROCKFORD       FAIR      10   4  76 NW8       30.57S WCI  -2
FREEPORT*      FAIR       8   3  82 W9        30.58S WCI  -6
ROCHELLE*      FAIR       9   5  85 NW8       30.56F WCI  -3
DE KALB*       FAIR       9   6  85 NW9       30.54S WCI  -4
PERU*          FAIR       8   4  84 W10       30.60R WCI  -7
$$

ILZ005-006-012>014-019>023-170400-
NORTHEAST ILLINOIS

CITY           SKY/WX    TMP DP  RH WIND       PRES   REMARKS
CHICAGO-OHARE  FAIR      16   8  71 NW8       30.53R WCI   5
CHICAGO-MIDWAY FAIR      17  10  74 NW8       30.53R WCI   7
AURORA         FAIR       7   3  84 W9        30.55S WCI  -7
LANSING*       FAIR      16  11  82 NW7       30.53R WCI   6
JOLIET*        FAIR      11   7  85 NW3       30.56S
WAUKEGAN       FAIR      15   8  73 W6        30.51S WCI   6
DUPAGE AIRPORT FAIR       9   5  84 CALM      30.53S
KANKAKEE*      FAIR       8   4  84 W12       30.57R WCI  -8
WHEELING       FAIR      16  10  77 NW7       30.55R WCI   6
MORRIS*        FAIR       8   4  84 W10       30.56S WCI  -7
ROMEOVILLE*    FAIR      10   6  87 W7        30.54S WCI  -2
NORTHERLY ISL    N/A     19  11  70 W13         N/A  WCI   6
$$

LMZ740>746-170400-
SOUTHERN LAKE MICHIGAN

STATION/POSITION SKY/WX   TEMP    WIND        PRES    VSBY  WAVE
                          AIR SEA DIR/SP/G                  HT/PER
                          (F)     (DEG/KT/KT) (MB)    (MI)  (FT/S)
HARRISON CRIB              20     310/ 17/ 21   N/A
BURNHAM HARBOR             19     270/  9/ 15   N/A
CALUMET HARBOR             18     280/  9/ 12 1032.8R
BURNS HARBOR               23     300/ 19/ 24 1032.5R
MICHIGAN CITY                     330/ 23/ 25   N/A
$$

ILZ025>027-034>036-040-047-049-050-058-095>099-170400-
WEST-CENTRAL ILLINOIS

CITY           SKY/WX    TMP DP  RH WIND       PRES   REMARKS
QUINCY         CLEAR      4  -2  76 W7        30.67R WCI  -8
GALESBURG*     FAIR       3   0  85 W8        30.64S WCI -10
MACOMB*        CLEAR      3  -1  83 W10       30.67S WCI -12
JACKSONVILLE*  CLEAR      4   0  80 W7        30.67S WCI  -8
PITTSFIELD*    CLEAR      6   0  78 W3        30.68S
$$

ILZ028>032-037-038-041>044-048-051>054-059>061-170400-
CENTRAL ILLINOIS

CITY           SKY/WX    TMP DP  RH WIND       PRES   REMARKS
PONTIAC        FAIR       8   6  92 W9        30.59S WCI  -6
BLOOMINGTON    FAIR       5   2  87 W12       30.59R WCI -11
DECATUR        MOCLDY     7   4  87 W12       30.62R WCI  -8
PEORIA         FAIR       7   2  80 W6        30.63S WCI  -3
LACON*         FAIR       7   2  83 CALM      30.62R
LINCOLN*       FAIR       8   4  84 W6        30.64S WCI  -2
SPRINGFIELD    FAIR       8   2  76 W9        30.65S WCI  -5
TAYLORVILLE    FAIR       7   1  78 W9        30.65S WCI  -7
$$

ILZ033-039-045-046-055>057-062-063-170400-
EAST-CENTRAL ILLINOIS

CITY           SKY/WX    TMP DP  RH WIND       PRES   REMARKS
CHAMPAIGN      FAIR       0  -3  87 W8        30.60R WCI -14
DANVILLE*      FAIR       3  -1  85 W7        30.55F WCI -10
RANTOUL*       FAIR       7   3  86 W10       30.58S WCI  -8
MATTOON        FAIR       5   1  83 W7        30.61S WCI  -7
PARIS*         CLOUDY     6   3  86 W9        30.62S WCI  -8
$$

ILZ079-100>102-170400-
SOUTHWEST ILLINOIS

CITY           SKY/WX    TMP DP  RH WIND       PRES   REMARKS
ALTON          CLEAR      9   5  85 W7        30.70S WCI  -3
BELLEVILLE     CLOUDY     9   1  69 NW9       30.70R WCI  -4
CAHOKIA*       CLOUDY    10   1  67 NW12      30.72S WCI  -5
SPARTA*        CLOUDY     9   3  75 NW8       30.71R WCI  -3
$$

ILZ064>066-069>071-074>076-080>082-084>086-088>090-092>094-170400-
SOUTH-CENTRAL ILLINOIS

CITY           SKY/WX    TMP DP  RH WIND       PRES   REMARKS
CARBONDALE     CLOUDY    10   5  80 N7        30.70R WCI  -1
CAIRO*         FLURRIES   8   3  80 CALM      30.70F
EFFINGHAM*     LGT SNOW  10   6  84 W8        30.66F WCI  -1
MARION         LGT SNOW  10   4  78 NW3       30.70R
MT. VERNON     FLURRIES   9   3  77 VRB5      30.69R WCI   1
CENTRALIA*     CLOUDY    10   4  75 NW10      30.67S WCI  -3
SALEM*         CLOUDY    10   3  72 NW8G16    30.67S WCI  -1
METROPOLIS*    CLOUDY     8   1  73 NW3       30.70S
$$

ILZ067-068-072-073-078-083-087-091-170400-
SOUTHEAST ILLINOIS

CITY           SKY/WX    TMP DP  RH WIND       PRES   REMARKS
LAWRENCEVILLE  CLOUDY     9   4  80 NW8       30.66S WCI  -3
FLORA*         FLURRIES  10   4  75 NW9       30.68S WCI  -2
FAIRFIELD*     CLOUDY     9   3  77 NW3       30.67S
HARRISBURG*    FLURRIES   8   3  80 SW3       30.70R
ROBINSON*      FLURRIES   7   3  81 W6        30.67S WCI  -3
CARMI*         FLURRIES   8   4  82 NW5       30.68R WCI   0
$$

ABBREVIATIONS USED IN REMARKS
   TC - TEMPERATURE IN CELSIUS
  WCI - WIND CHILL INDEX
   HX - HEAT INDEX
  VSB - VISIBILITY
$$





USA.gov is the U.S. government's official web portal to all federal, state and local government web resources and services.